AirNav   Everest Fuels
 
 355 users online  

O53 Medford Municipal Airport
Medford, Oklahoma, USA

GOING TO MEDFORD?


FAA INFORMATION EFFECTIVE 21 MAY 2020

Location

FAA Identifier: O53
Lat/Long: 36-47-26.1030N 097-44-56.3900W
36-47.435050N 097-44.939833W
36.7905842,-97.7489972
(estimated)
Elevation: 1092 ft. / 332.8 m (surveyed)
Variation: 05E (2005)
From city: 1 mile SW of MEDFORD, OK
Time zone: UTC -5 (UTC -6 during Standard Time)
Zip code: 73759

Airport Operations

Airport use: Open to the public
Activation date: 03/1948
Control tower: no
ARTCC: KANSAS CITY CENTER
FSS: MC ALESTER FLIGHT SERVICE STATION
NOTAMs facility: MLC (NOTAM-D service available)
Attendance: IREG
Wind indicator: lighted
Segmented circle: yes
Lights: DUSK-DAWN ACTVT MIRL RY 17/35 - CTAF.
Beacon: white-green (lighted land airport)
Operates sunset to sunrise.

Airport Communications

CTAF/UNICOM: 122.8
VANCE APPROACH: 118.075
VANCE DEPARTURE: 118.075
WX AWOS-3 at BKN (19 nm E): 120.575 (580-363-0688)
  • APCH/DEP SVC PRVDD BY KANSAS CITY ARTCC ON FREQS 127.8/319.1 (PONCA CITY RCAG) WHEN VANCE APCH CTL CLSD.

Nearby radio navigation aids

VOR radial/distance  VOR name  Freq  Var
ODGr356/25.1WOODRING VOR/DME109.0008E
ENDr012/28.0VANCE VORTAC115.4005E
PERr269/28.4PIONEER VORTAC113.2006E
ANYr131/30.0ANTHONY VORTAC112.9007E

Airport Services

Fuel available: 100LL
FOR FUEL CALL ARPT ATTENDANT 580-395-3176 OR SHERIFF'S OFFICE 580-395-2356.
Parking: hangars and tiedowns
Airframe service: NONE
Powerplant service: NONE
Bottled oxygen: NONE
Bulk oxygen: NONE

Runway Information

Runway 17/35

Dimensions: 3007 x 60 ft. / 917 x 18 m
Surface: asphalt, in good condition
Weight bearing capacity: 
Single wheel: 13.0
Runway edge lights: medium intensity
RUNWAY 17  RUNWAY 35
Latitude: 36-47.682800N36-47.187317N
Longitude: 097-44.939367W097-44.940900W
Elevation: 1092.0 ft.1085.0 ft.
Traffic pattern: leftleft
Runway heading: 175 magnetic, 180 true355 magnetic, 360 true
Markings: nonprecision, in good conditionnonprecision, in good condition
Visual slope indicator: 2-light PAPI on left (3.51 degrees glide path)2-light PAPI on left (3.51 degrees glide path)
Touchdown point: yes, no lightsyes, no lights

Airport Ownership and Management from official FAA records

Ownership: Publicly-owned
Owner: CITY OF MEDFORD
615 N. FRONT ST.
MEDFORD, OK 73759
Phone 580-395-2875
Manager: DEA MANDEVILL
615 N. FRONT ST., PO BOX 123
MEDFORD, OK 73759
Phone 580-395-2875
CITY MANAGER.

Airport Operational Statistics

Aircraft based on the field: 5
Single engine airplanes: 5
    
Aircraft operations: avg 83/month *
60% local general aviation
40% transient general aviation
* for 12-month period ending 24 April 2019

Additional Remarks

100 FT REFINERY 1 NM SW OF ARPT.
FOR CD CTC VANCE APCH AT 580-213-6765. WHEN VANCE APCH IS CLSD, CTC KANSAS CITY ARTCC AT 913-254-8508.

Instrument Procedures

NOTE: All procedures below are presented as PDF files. If you need a reader for these files, you should download the free Adobe Reader.

NOT FOR NAVIGATION. Please procure official charts for flight.
FAA instrument procedures published for use from 21 May 2020 at 0901Z to 18 June 2020 at 0900Z.

 
IAPs - Instrument Approach Procedures
RNAV (GPS) RWY 17   download (159KB)
RNAV (GPS) RWY 35   download (163KB)

Other nearby airports with instrument procedures:

KBKN - Blackwell-Tonkawa Municipal Airport (19 nm E)
KWDG - Enid Woodring Regional Airport (25 nm S)
KANY - Anthony Municipal Airport (27 nm NW)
KEND - Vance Air Force Base (28 nm S)
KPNC - Ponca City Regional Airport (31 nm E)
 
Loc | Ops | Rwys | IFR | FBO | Links
Com | Nav | Svcs | Stats | Notes
Area around O53 (Medford Municipal Airport)
 
Road maps at: MapQuest Bing Google
 
Aerial photo
WARNING: Photo may not be current or correct
Aerial photo of O53 (Medford Municipal Airport)
Do you have a better or more recent aerial photo of Medford Municipal Airport that you would like to share? If so, please send us your photo.

 
Sectional chart

 
Airport distance calculator
Flying to Medford Municipal Airport? Find the distance to fly.

From to O53

Sunrise and sunset
Times for 07-Jun-2020
 Local
(UTC-5)
 Zulu
(UTC)
Morning civil twilight05:4210:42
Sunrise06:1311:13
Sunset20:4701:47
Evening civil twilight21:1802:18

Current date and time
Zulu (UTC)  07-Jun-2020 08:37:39
Local (UTC-5)  07-Jun-2020 03:37:39
 
METAR
KBKN 
19nm E 
070815Z AUTO 13007KT 10SM 25/24 A2986 RMK AO2
KWDG 
25nm S 
070815Z AUTO 14005KT 10SM CLR 21/21 A2986 RMK AO2
KEND 
30nm S 
070756Z AUTO 13007KT 10SM CLR 25/25 A2986 RMK AO2 SLP096 T02460246
KPNC 
31nm E 
070753Z AUTO 15008KT 10SM CLR 26/21 A2986 RMK AO2 SLP097 T02610211
TAF
KEND 
30nm S 
062341Z 0623/0724 16010G15KT 9999 FEW150 QNH2974INS BECMG 0708/0709 VRB06KT 9999 SKC QNH2984INS BECMG 0715/0716 15020G25KT 9999 SKC QNH2972INS TX36/0623Z TN23/0711Z LAST NO AMDS AFT 0823 NEXT 0812
KPNC 
31nm E 
070520Z 0706/0806 15010KT P6SM SCT250
NOTAMs
Click for the latest NOTAMs
NOTAMs are issued by the DoD/FAA and will open in a separate window not controlled by AirNav.

 

 
 

FBO, Fuel Providers, and Aircraft Ground Support

  
 Business Name 
 
 Contact 
 
 Services / Description 
 
Fuel Prices
 
Comments
  
Andy Deterding Ag Aviation 580-532-4483
no information available

If you are affiliated with Andy Deterding Ag Aviation and would like to show here your services, contact info, web link, logo, and more, click here
100LL
SS $4.75 
 Updated 21-May-2020
 
   write
SS=Self service
Update Fuel Prices
 

Would you like to see your business listed on this page?

 If your business provides an interesting product or service to pilots, flight crews, aircraft, or users of the Medford Municipal Airport, you should consider listing it here.  To start the listing process, click on the button below
 
Add a business
 

Other Pages about Medford Municipal Airport

Mid Air Collision Avoidance for KEND (Vance Air Force Base)
 
Update a link
 
Copyright © AirNav, LLC. All rights reserved. Privacy Policy  Contact